Showing default

CYGFM03, 41891

Orbit data source: Space-Track

CYGFM03, 41891 is an American payload satellite in LEO that was launched on Thu, 15 Dec 2016 UTC via a PEGASUS XL launch vehicle from the Pegasus Launch, Eastern Range Air Space (ERAS). Payload-class satellites include a variety of spacecraft equipped with specific instruments for various scientific and technological missions. These include communications satellites like Starlink; space stations such as the ISS; scientific satellites like the Hubble; Earth observation satellites from companies like Planet Labs, Umbra, and HawkEye 360; GPS; miniature CubeSats for education and research; and military/defense satellites.

Loading next visibility...
Identifier
41891, 2016-078H
Orbit
LEO
Country
Flag of USUS
Related business
Manufacturer
SST-US
Mission
Extended mission Civil Earth Obs Sci
Bus & Motor
CYGNSS, Unknown motor
Mass
29 kg wet, 29 kg dry
Launch date (UTC)
2016-12-15 (9 years ago)
Launch vehicle
PEGASUS XL
Launch site
Pegasus Launch, Eastern Range Air Space (ERAS)
Object type
Payload
Rocket body
Debris
Shape & HBR
Half Hex Cyl + 2 Pan, 2.5 m
Radar Cross Section
0.450 m², Medium (>0.1 m² and < 1m²)

Expand to show TLE details & history
Last TLE update: 11 hours ago

TLE from 11 hours ago
0 CYGFM03
1 41891U 16078H   25291.30558563  .00027926  00000-0  53739-3 0  9995
2 41891  34.9443  25.9555 0007916  48.3335 311.8063 15.46877885491333
Epoch: 2025-10-18T07:20Z
TLE epoch observation values (Epoch: 2025-10-18T07:20:02.598Z)
Latitude
-0°
Longitude
-111.09383°
Altitude
421.168 km
Speed
7.663 km/s
True Right ascension
01h 43m 49s
True Declination
0° 00' 00"
Sunlit
Object was in full shadow at epoch
Visualization orbit readout
Latitude
Unknown
Longitude
Unknown
Altitude
Unknown
Speed
Unknown
Apparent Right ascension
Unknown
Apparent Declination
Unknown
Sunlit
N/A
Visualization observer readout
Local Sidereal Time
13:29:02
Azimuth
Unknown
Elevation
Unknown
Doppler factor
Unknown
Orbital elements
Apogee altitude
434.547 km
Perigee altitude
423.77 km
Semi-major axis
6,807.296 km
Eccentricity
0.00079
Inclination
34.9443°
RAAN
25.9555°
Arg. of periapsis
48.3335°
True anomaly
311.73864°
Mean anomaly
311.8063°
Eccentric anomaly
311.77247°
Mean motion
3.86439 °/min
Orbital period
93.16 mins
BSTAR
0.00053739
Loading maneuver chart data...
Computing Atmospheric mass density...
Loading historical data...
Loading historical data...
Loading historical data...
Loading historical data...
Loading historical data...
Loading historical data...
Loading historical data...

Documentation

Showing up to 5 results
|